This demonstration page uses our WeatherBlox Daily Observations layout. Learn more.

39.08367, -84.50855

Hourly Observations for October 26, 2019

Temp ( °F °C ) Dew Point ( °F °C ) Humidity (%) Winds ( mph kmh ) Pressure ( in mb ) Visibility ( mi km ) Precip ( " mm )
12:53 am 00:53 Clear 51 10.6 49 9.4 92 92 NNW 5 7 30.18 1022 10 16.0934 0 0
1:53 am 01:53 Clear 51 10.6 49 9.4 92 92 N 3 6 30.17 1022 10 16.0934 0 0
2:53 am 02:53 Mostly Cloudy 51 10.6 49 9.4 92 92 Calm 30.15 1021 10 16.0934 0 0
3:53 am 03:53 Cloudy 52 11.1 49 9.4 89 89 NE 5 7 30.12 1020 10 16.0934 0 0
4:53 am 04:53 Cloudy 53 11.7 49 9.4 86 86 NE 6 9 30.12 1020 10 16.0934 0 0
5:53 am 05:53 Cloudy with Light Rain 52 11.1 49 9.4 89 89 NE 5 7 30.1 1019 9 14.48406 0.001 0.001
6:53 am 06:53 Cloudy with Light Rain 52 11.1 50 10 93 93 NNE 5 7 30.07 1018 6 9.65604 0.03 0.762
7:44 am 07:44 Cloudy with Light Rain 52 11.1 50 10 93 93 NE 6 9 30.06 1018 5 8.0467 0.03 0.762
7:53 am 07:53 Cloudy with Light Rain 52 11.1 51 10.6 97 97 NNE 5 7 30.05 1018 6 9.65604 0.03 0.762
8:08 am 08:08 Cloudy with Rain 52 11.1 51 10.6 97 97 NNE 6 9 30.03 1017 4 6.43736 0.02 0.508
8:38 am 08:38 Cloudy with Rain 52 11.1 51 10.6 97 97 ENE 7 11 30.03 1017 2.5 4.02335 0.05 1.27
8:46 am 08:46 Cloudy with Light Rain 52 11.1 51 10.6 97 97 ENE 7 11 30.03 1017 3 4.82802 0.06 1.524
8:53 am 08:53 Cloudy with Light Rain 53 11.7 51 10.6 93 93 ENE 8 13 30.03 1017 3 4.82802 0.06 1.524
9:00 am 09:00 Cloudy with Heavy Rain 53 11.7 51 10.6 93 93 NE 7 11 30.03 1017 1.75 2.816345 0.02 0.508
9:07 am 09:07 Cloudy with Rain 53 11.7 52 11.1 96 96 NE 7 11 30.03 1017 1.75 2.816345 0.04 1.016
9:15 am 09:15 Cloudy with Rain 53 11.7 52 11.1 96 96 NE 6 9 30.03 1017 2 3.21868 0.05 1.27
9:29 am 09:29 Cloudy with Rain 53 11.7 52 11.1 96 96 ENE 6 9 30.03 1017 1.5 2.41401 0.08 2.032
9:43 am 09:43 Cloudy with Light Rain 53 11.7 52 11.1 96 96 NE 9 15 30 1016 2.5 4.02335 0.1 2.54
9:47 am 09:47 Cloudy with Light Rain 54 12 52 11 94 94 NE 8 13 30 1016 4 6.43736 0.1 2.54
9:53 am 09:53 Cloudy with Light Rain 53 11.7 52 11.1 96 96 NE 6 9 30.01 1016 5 8.0467 0.11 2.794
10:11 am 10:11 Cloudy with Heavy Rain 53 11.7 52 11.1 96 96 ENE 6 9 30 1016 1.75 2.816345 0.07 1.778
10:28 am 10:28 Cloudy with Heavy Rain 54 12.2 52 11.1 93 93 ENE 8 13 30 1016 2 3.21868 0.15 3.81
10:51 am 10:51 Cloudy with Rain 54 12 54 12 100 100 ENE 10 17 29.97 1015 4 6.43736 0.22 5.588
10:53 am 10:53 Cloudy with Rain 54 12.2 52 11.1 93 93 ENE 9 15 29.98 1015 5 8.0467 0.22 5.588
11:53 am 11:53 Cloudy with Light Rain 55 12.8 53 11.7 93 93 E 6 9 29.95 1014 8 12.87472 0.06 1.524
12:53 pm 12:53 Cloudy with Light Rain 56 13.3 54 12.2 93 93 E 6 9 29.91 1013 8 12.87472 0.01 0.254
1:53 pm 13:53 Cloudy with Light Rain 57 13.9 55 12.8 93 93 ENE 7 11 29.86 1011 10 16.0934 0.01 0.254
2:53 pm 14:53 Cloudy with Light Rain 59 15 56 13.3 90 90 NE 3 6 29.8 1009 10 16.0934 0.01 0.254
3:53 pm 15:53 Cloudy with Light Rain 60 15.6 57 13.9 90 90 ESE 6 9 29.77 1008 9 14.48406 0.01 0.254
4:00 pm 16:00 Cloudy with Light Rain 60 15.6 57 13.9 90 90 VRB 3 6 29.77 1008 9 14.48406 0.001 0.001
4:53 pm 16:53 Cloudy with Light Rain 61 16.1 58 14.4 90 90 ESE 6 9 29.72 1007 10 16.0934 0.02 0.508
5:53 pm 17:53 Cloudy with Light Rain 61 16.1 59 15 93 93 E 8 13 29.68 1005 6 9.65604 0.03 0.762
6:53 pm 18:53 Cloudy 62 16.7 59 15 90 90 E 8 13 29.65 1004 10 16.0934 0.001 0.001
7:53 pm 19:53 Cloudy with Light Rain 63 17.2 60 15.6 90 90 VRB 6 9 29.64 1004 10 16.0934 0.01 0.254
8:53 pm 20:53 Cloudy with Light Rain 62 16.7 60 15.6 93 93 W 12 19 29.65 1004 9 14.48406 0.03 0.762
9:53 pm 21:53 Cloudy with Light Rain 64 17.8 61 16.1 90 90 SSE 16 26 29.6 1003 7 11.26538 0.03 0.762
10:30 pm 22:30 Cloudy with Light Rain 63 17.2 62 16.7 97 97 S 10 17 29.62 1003 6 9.65604 0.01 0.254
10:53 pm 22:53 Cloudy with Light Rain 64 17.8 63 17.2 96 96 SSE 12 19 29.6 1003 10 16.0934 0.03 0.762
11:00 pm 23:00 Cloudy with Light Rain 65 18.3 63 17.2 93 93 S 13 20 29.62 1003 9 14.48406 0.01 0.254
11:53 pm 23:53 Mostly Cloudy 66 18.9 63 17.2 90 90 SSW 17 28 29.62 1003 10 16.0934 0.02 0.508

Powered by AerisWeather